Wetbulb
69.63 72.07 77.30 77.15 77.33 77.45 77.27 77.27 77.55 77.65 77.96 77.55 77.98 78.08 77.70 77.37 77.82 77.85 77.65 77.30 77.37 77.07 76.48 76.86 77.27 76.90 76.41 76.24 76.29 77.02 76.70 75.88 75.82 76.31 76.14 76.41 76.32 76.11 75.77 76.02 76.16 74.18 75.78
71.05 73.89 77.57 77.78 77.14 77.09 77.21 77.41 77.71 77.71 77.52 77.69 78.25 78.20 78.09 77.42 77.25 77.49 77.77 77.39 77.42 77.22 76.92 76.68 76.57 76.18 76.57 76.32 75.93 77.02 77.10 76.86 76.35 76.35 76.01 76.23 76.19 76.15 75.77 75.77 75.77 74.55 75.85
72.66 74.85 75.89 77.87 77.27 77.27 77.31 77.33 77.57 77.44 77.52 78.00 78.35 78.14 77.81 77.78 77.78 77.62 77.08 76.87 76.86 76.93 76.93 76.68 76.16 76.82 76.79 76.96 76.54 76.77 76.76 76.35 76.15 76.07 76.08 73.60 73.84 76.07 75.93 75.89 75.66 75.89 75.72
74.22 74.03 74.70 77.71 77.82 77.51 77.48 77.56 77.74 77.18 77.43 77.74 77.93 78.13 77.89 77.89 77.57 77.42 77.20 76.84 76.98 76.48 76.85 76.39 76.39 76.70 76.32 75.58 75.98 76.64 76.63 76.35 75.95 75.71 72.44 73.78 73.59 75.93 76.02 75.79 75.82 75.78 75.81
74.08 74.39 75.13 77.61 77.97 77.65 77.60 77.22 77.08 77.39 77.37 77.55 77.65 77.49 77.16 77.19 77.50 77.80 77.43 76.76 77.06 76.62 76.21 76.45 76.39 76.08 75.94 75.49 75.24 75.29 75.68 74.88 75.64 72.91 70.81 72.34 72.42 75.09 75.82 75.79 75.48 75.70 75.88
73.11 74.59 76.46 77.17 76.99 77.02 77.47 77.31 77.14 77.33 77.53 77.36 77.65 77.25 77.55 77.74 77.48 76.43 76.52 76.58 77.04 76.81 76.30 75.93 75.33 75.33 74.90 74.80 74.96 74.80 74.97 74.94 74.78 71.12 70.46 74.07 72.67 76.02 76.06 76.08 76.00 75.61 75.62
72.96 74.73 74.94 77.81 77.42 77.04 77.12 77.43 76.98 77.06 77.39 77.09 77.14 77.14 77.21 77.28 76.98 77.12 76.40 75.74 75.44 75.47 75.85 75.94 75.90 75.84 75.72 74.63 74.28 74.33 75.38 75.68 72.19 71.57 71.37 71.95 73.42 76.88 75.69 76.23 76.16 75.96 75.71
73.83 74.45 74.49 76.85 77.09 76.83 77.11 76.96 77.39 76.91 77.14 77.36 77.37 77.40 77.28 76.95 76.90 76.59 75.96 76.21 76.15 76.02 75.74 75.08 74.72 75.13 75.13 74.94 74.69 74.52 75.58 75.29 72.07 72.14 73.01 72.73 75.48 76.58 75.71 75.89 75.88 76.04 76.12
74.17 73.81 73.75 74.45 75.34 76.81 76.78 77.02 76.88 77.38 77.40 76.95 77.13 77.13 77.02 76.79 77.06 76.32 76.32 76.27 75.99 75.60 76.02 75.77 75.16 74.52 74.39 74.47 74.61 74.62 76.08 75.11 69.12 71.61 73.67 73.65 76.65 76.34 75.95 75.75 75.77 75.66 75.88
72.81 73.19 72.58 72.67 72.73 73.29 74.33 77.14 76.87 77.19 76.92 76.67 76.73 76.64 76.29 76.40 76.45 76.18 76.65 76.04 75.58 75.24 75.13 75.16 74.88 74.72 74.63 74.56 74.66 74.71 75.05 74.99 71.97 72.62 73.98 73.71 76.27 75.84 75.71 75.47 75.54 75.49 75.55
71.65 72.13 72.24 72.16 72.78 73.19 73.71 75.09 76.51 76.88 76.92 77.02 76.52 76.34 75.65 72.37 72.55 74.01 75.18 76.03 75.94 75.77 75.57 75.35 75.38 75.46 75.41 75.49 75.33 75.40 75.27 72.19 72.59 72.66 73.08 75.33 75.76 75.65 75.62 75.50 75.54 75.64 75.63
69.75 71.44 71.76 72.24 72.42 72.14 74.52 73.17 72.87 73.44 72.94 72.54 72.82 71.84 72.51 71.81 71.61 73.68 74.50 75.87 75.91 76.44 76.16 75.83 75.84 75.91 75.66 71.87 73.00 74.51 72.12 71.56 72.25 72.45 72.57 75.36 75.10 75.06 75.56 75.50 75.47 75.76 75.46
69.46 69.96 70.93 71.76 72.08 71.28 72.76 72.68 71.94 71.38 71.94 71.78 71.80 71.68 71.17 73.15 71.69 72.45 73.24 73.07 73.28 74.38 73.46 73.68 73.77 73.74 74.33 71.68 71.14 71.34 71.27 72.39 70.82 72.42 72.42 74.85 74.49 74.32 75.15 75.24 75.39 75.54 75.65
68.64 69.23 70.22 71.55 71.09 70.72 71.91 72.75 72.22 71.78 71.97 71.44 71.57 71.38 71.43 71.99 71.44 71.73 72.51 72.35 73.06 72.39 71.40 71.07 70.44 71.24 72.94 72.57 71.12 71.37 71.81 72.17 71.13 70.99 71.25 74.27 73.84 73.75 74.88 75.18 75.09 75.17 75.25
67.96 68.71 70.13 70.64 70.72 71.18 71.06 71.81 71.82 71.84 72.06 71.63 71.81 71.84 71.88 72.09 71.44 71.51 71.84 72.73 72.56 71.76 70.69 69.37 70.53 70.99 72.10 72.10 72.15 71.46 71.97 71.68 71.00 70.79 68.81 73.44 73.52 73.98 74.27 75.16 75.07 74.90 75.01
67.53 68.11 69.84 70.45 70.51 70.76 71.50 71.33 71.77 71.68 72.41 72.51 71.99 71.65 72.19 72.03 71.15 70.92 71.75 72.19 71.58 71.54 70.10 70.13 70.38 70.20 71.83 71.59 71.34 71.41 71.53 71.10 69.89 70.12 70.75 69.76 74.36 74.23 74.24 74.48 74.71 74.75 74.89
66.96 68.24 68.67 69.59 70.72 70.29 71.07 71.50 72.02 71.82 72.26 71.75 71.96 71.75 71.71 72.23 71.52 71.95 71.12 71.02 70.90 70.79 70.79 71.16 70.70 70.68 70.61 70.97 70.50 70.95 70.98 70.88 71.06 70.82 70.89 70.60 72.36 74.79 74.08 74.56 74.19 74.26 74.68
67.75 67.29 68.42 70.86 70.81 70.76 71.13 71.18 70.23 70.52 70.69 70.74 71.20 71.76 73.19 72.97 72.59 72.28 71.80 71.97 72.12 71.29 70.23 70.14 70.14 69.50 69.14 68.84 68.47 69.17 70.76 71.73 71.83 71.48 71.87 71.36 71.18 73.07 74.37 74.47 74.65 74.24 74.31
67.87 67.33 69.26 69.81 70.38 70.61 70.91 70.14 69.39 69.91 70.47 70.69 71.71 72.31 71.99 72.77 73.35 72.17 72.66 72.75 72.35 71.29 71.09 70.45 69.59 69.21 68.40 68.60 69.58 68.59 69.88 70.39 71.89 72.75 71.69 71.88 71.04 72.70 72.54 74.70 75.05 74.73 74.61
67.90 68.15 69.87 70.60 70.44 69.93 70.19 68.74 68.78 68.88 70.42 71.12 71.64 72.27 72.31 71.54 71.38 70.55 72.91 72.93 72.40 71.13 71.18 70.00 69.07 69.18 68.87 69.34 71.67 70.68 69.89 69.56 70.79 71.22 71.10 72.05 72.68 72.52 72.16 71.71 72.65 73.52 75.17
67.94 68.12 68.94 69.33 69.03 69.10 68.53 67.64 67.78 68.17 69.57 69.92 71.12 71.87 71.85 72.56 70.80 72.65 72.76 72.15 71.81 71.10 70.78 70.42 69.90 69.39 69.01 69.36 68.10 67.00 66.33 68.62 70.15 70.75 69.50 70.36 72.05 71.28 71.91 71.89 72.04 71.78 73.03
68.10 68.46 68.78 69.30 68.61 69.17 68.91 68.32 69.26 69.51 69.78 69.86 70.96 71.53 72.10 72.26 72.87 73.31 72.55 71.75 71.82 71.77 71.14 70.93 70.09 68.98 69.00 69.75 66.13 63.17 63.52 66.51 68.66 70.20 70.07 70.01 70.46 72.42 72.16 72.17 72.21 71.58 71.55
68.05 68.25 68.92 68.68 69.06 69.00 69.12 68.63 69.96 70.82 69.97 69.90 70.72 70.35 72.23 73.39 73.45 74.04 72.51 71.70 71.28 71.75 70.83 70.20 70.02 68.79 67.99 69.14 68.05 64.18 61.93 61.40 64.45 67.81 68.82 68.96 69.81 70.13 71.44 72.36 72.17 72.21 71.37
68.01 68.37 69.27 68.62 68.84 69.21 68.37 68.16 68.89 68.29 67.89 68.39 70.20 71.01 72.53 74.03 73.89 73.64 72.63 72.96 71.64 71.27 71.15 71.31 71.82 70.22 68.79 67.74 69.34 70.02 66.55 65.40 62.66 62.79 67.18 68.60 70.08 70.47 70.24 70.99 71.42 71.80 71.35
68.52 67.83 68.94 68.74 69.14 69.20 68.38 69.15 68.91 68.22 68.53 69.03 69.69 70.49 71.71 72.51 73.46 74.42 73.53 71.93 71.45 71.64 71.82 71.53 71.26 70.89 70.57 69.54 69.18 68.85 68.40 66.60 64.90 63.83 62.89 65.57 68.22 68.67 69.43 70.47 70.59 70.32 70.68
68.36 68.24 69.34 68.72 69.10 68.86 68.75 69.96 69.71 69.25 68.58 68.90 70.57 69.58 70.63 72.34 72.07 73.87 73.41 72.38 70.84 71.29 71.67 71.74 71.26 70.78 70.26 69.55 69.27 67.16 67.52 67.07 65.69 63.90 63.38 63.60 64.86 66.58 68.06 70.00 69.62 69.57 69.30
MSLP
1016.00 1015.70 1015.45 1015.51 1015.66 1015.75 1015.86 1015.94 1015.84 1015.80 1015.85 1016.08 1016.09 1016.05 1016.13 1016.12 1016.04 1016.22 1016.39 1016.66 1016.74 1016.87 1017.04 1017.17 1017.16 1017.20 1017.29 1017.30 1017.32 1017.38 1017.55 1017.71 1017.85 1018.02 1018.06 1018.16 1018.29 1018.49 1018.66 1018.72 1018.84 1018.98 1019.14
1015.66 1015.65 1015.55 1015.60 1015.80 1015.95 1016.08 1016.10 1016.13 1016.21 1016.24 1016.38 1016.45 1016.49 1016.50 1016.57 1016.55 1016.52 1016.70 1016.92 1017.15 1017.25 1017.36 1017.50 1017.55 1017.60 1017.59 1017.60 1017.74 1017.73 1017.80 1017.95 1018.02 1018.11 1018.37 1018.54 1018.66 1018.78 1018.93 1019.15 1019.37 1019.36 1019.41
1015.86 1015.74 1015.82 1015.91 1016.09 1016.23 1016.26 1016.23 1016.33 1016.52 1016.48 1016.53 1016.60 1016.63 1016.77 1016.95 1016.94 1016.92 1017.07 1017.28 1017.53 1017.49 1017.64 1017.88 1018.03 1017.98 1018.01 1017.92 1018.09 1018.16 1018.24 1018.34 1018.40 1018.46 1018.65 1018.90 1018.94 1019.05 1019.12 1019.34 1019.57 1019.70 1019.66
1015.94 1016.02 1016.16 1016.22 1016.37 1016.50 1016.43 1016.50 1016.58 1016.80 1016.75 1016.89 1016.89 1016.97 1016.88 1017.10 1017.34 1017.22 1017.38 1017.63 1017.67 1017.79 1017.97 1018.22 1018.18 1018.25 1018.42 1018.48 1018.48 1018.44 1018.63 1018.64 1018.72 1018.94 1019.22 1019.27 1019.17 1019.27 1019.51 1019.53 1019.70 1019.91 1020.06
1016.27 1016.37 1016.48 1016.51 1016.62 1016.64 1016.59 1016.82 1016.86 1016.96 1017.02 1017.25 1017.27 1017.41 1017.24 1017.28 1017.66 1017.61 1017.59 1018.04 1018.09 1018.08 1018.17 1018.42 1018.58 1018.52 1018.58 1018.64 1018.71 1018.70 1018.77 1018.95 1019.03 1019.34 1019.58 1019.59 1019.66 1019.60 1019.60 1019.85 1020.07 1020.19 1020.38
1016.33 1016.69 1016.65 1016.75 1016.89 1016.87 1016.90 1017.01 1017.10 1017.14 1017.18 1017.44 1017.54 1017.65 1017.59 1017.56 1017.72 1017.94 1017.66 1017.95 1018.25 1018.23 1018.25 1018.56 1018.69 1018.83 1018.92 1018.83 1018.89 1018.93 1019.00 1019.08 1019.35 1019.56 1019.68 1019.68 1019.93 1019.89 1020.04 1020.05 1020.23 1020.41 1020.48
1016.63 1016.71 1016.72 1016.97 1017.09 1017.16 1017.24 1017.22 1017.37 1017.48 1017.48 1017.83 1017.89 1017.78 1017.78 1017.79 1017.93 1018.10 1018.05 1018.10 1018.50 1018.67 1018.62 1018.71 1018.76 1018.83 1019.07 1019.20 1019.11 1019.03 1018.96 1019.18 1019.61 1019.87 1019.94 1020.01 1020.01 1019.99 1020.23 1020.21 1020.35 1020.63 1020.74
1016.64 1016.72 1016.83 1016.90 1017.13 1017.37 1017.55 1017.47 1017.57 1017.79 1017.69 1017.98 1017.86 1017.72 1017.75 1018.01 1018.19 1018.22 1018.16 1018.16 1018.39 1018.59 1018.74 1018.84 1019.09 1019.14 1019.24 1019.31 1019.32 1019.13 1019.23 1019.44 1019.78 1019.94 1020.09 1020.28 1020.24 1020.23 1020.34 1020.50 1020.65 1020.73 1020.85
1016.64 1016.84 1017.07 1017.16 1017.24 1017.50 1017.67 1017.69 1017.75 1017.91 1017.90 1017.97 1017.89 1017.74 1017.83 1017.97 1018.21 1018.36 1018.34 1018.33 1018.39 1018.61 1018.80 1018.85 1019.02 1019.32 1019.43 1019.45 1019.47 1019.31 1019.27 1019.61 1019.97 1020.15 1020.20 1020.33 1020.29 1020.29 1020.42 1020.63 1020.79 1020.91 1021.00
1016.87 1016.92 1017.24 1017.32 1017.45 1017.69 1017.82 1017.78 1017.81 1017.99 1018.00 1017.95 1017.84 1017.89 1018.11 1018.10 1018.36 1018.54 1018.59 1018.59 1018.61 1018.73 1018.83 1018.91 1019.05 1019.21 1019.38 1019.55 1019.51 1019.48 1019.42 1019.73 1020.04 1020.23 1020.18 1020.33 1020.37 1020.42 1020.54 1020.66 1020.89 1021.09 1021.28
1017.13 1017.32 1017.38 1017.47 1017.65 1017.86 1018.03 1017.89 1017.92 1018.08 1018.05 1018.07 1017.99 1018.08 1018.14 1018.32 1018.54 1018.50 1018.48 1018.51 1018.56 1018.67 1018.76 1018.88 1018.92 1019.12 1019.20 1019.52 1019.63 1019.55 1019.66 1019.96 1020.28 1020.38 1020.35 1020.23 1020.45 1020.51 1020.59 1020.73 1020.96 1021.26 1021.44
1017.16 1017.42 1017.45 1017.55 1017.80 1018.04 1017.96 1018.11 1018.25 1018.25 1018.32 1018.23 1018.21 1018.30 1018.32 1018.47 1018.58 1018.52 1018.50 1018.39 1018.36 1018.45 1018.60 1018.73 1018.86 1019.01 1019.18 1019.75 1019.82 1019.77 1019.97 1020.03 1020.33 1020.24 1020.39 1020.45 1020.59 1020.75 1020.69 1020.90 1021.04 1021.29 1021.54
1017.10 1017.40 1017.52 1017.58 1017.82 1018.15 1018.07 1018.20 1018.33 1018.46 1018.41 1018.36 1018.50 1018.47 1018.55 1018.62 1018.81 1018.68 1018.61 1018.44 1018.34 1018.46 1018.58 1018.84 1018.88 1019.17 1019.26 1019.79 1019.93 1019.87 1019.96 1020.14 1020.46 1020.37 1020.52 1020.49 1020.52 1020.71 1020.80 1020.97 1021.21 1021.40 1021.55
1016.97 1017.12 1017.30 1017.51 1017.90 1018.08 1018.05 1018.10 1018.21 1018.29 1018.36 1018.45 1018.44 1018.60 1018.58 1018.49 1018.69 1018.40 1018.40 1018.24 1018.11 1018.41 1018.59 1018.92 1019.20 1019.33 1019.28 1019.68 1019.83 1019.82 1019.72 1019.99 1020.29 1020.50 1020.52 1020.44 1020.59 1020.68 1020.82 1021.01 1021.27 1021.41 1021.64
1016.87 1017.03 1017.29 1017.52 1017.73 1017.72 1017.95 1018.07 1018.05 1018.11 1018.13 1018.24 1018.30 1018.42 1018.43 1018.46 1018.47 1018.27 1018.14 1018.14 1018.30 1018.36 1018.57 1018.96 1019.14 1019.26 1019.47 1019.52 1019.54 1019.76 1019.72 1019.93 1020.10 1020.38 1020.65 1020.57 1020.68 1020.71 1020.89 1021.07 1021.24 1021.40 1021.62
1016.71 1016.86 1017.15 1017.41 1017.48 1017.60 1017.69 1017.77 1017.70 1017.93 1017.88 1018.04 1017.94 1018.21 1018.12 1018.25 1018.26 1018.21 1018.13 1018.21 1018.37 1018.46 1018.58 1018.76 1019.08 1019.34 1019.38 1019.35 1019.34 1019.40 1019.66 1019.92 1020.13 1020.46 1020.79 1020.88 1020.73 1020.82 1020.92 1021.03 1021.28 1021.43 1021.59
1016.20 1016.60 1016.87 1017.06 1017.12 1017.40 1017.56 1017.61 1017.60 1017.55 1017.61 1017.74 1017.66 1017.87 1017.85 1017.96 1018.13 1018.02 1017.98 1018.14 1018.23 1018.36 1018.53 1018.71 1018.85 1019.08 1019.25 1019.19 1019.48 1019.54 1019.72 1020.05 1020.23 1020.45 1020.63 1020.82 1020.74 1020.79 1020.84 1020.84 1021.18 1021.34 1021.48
1015.94 1016.35 1016.65 1016.81 1017.01 1017.27 1017.34 1017.47 1017.54 1017.32 1017.30 1017.42 1017.46 1017.74 1017.65 1017.71 1017.86 1017.81 1017.87 1017.88 1017.98 1018.16 1018.40 1018.68 1018.91 1019.05 1019.32 1019.52 1019.78 1019.90 1019.86 1019.97 1020.06 1020.31 1020.55 1020.82 1020.92 1020.81 1020.65 1020.78 1020.93 1021.08 1021.39
1015.52 1016.06 1016.43 1016.63 1016.85 1017.10 1017.13 1017.39 1017.45 1017.19 1017.14 1017.34 1017.47 1017.68 1017.74 1017.77 1017.81 1017.88 1017.83 1017.80 1017.86 1018.16 1018.32 1018.61 1018.95 1019.13 1019.52 1019.69 1019.92 1020.04 1020.00 1020.04 1019.99 1020.26 1020.39 1020.71 1021.02 1020.74 1020.75 1020.68 1020.75 1021.02 1021.28
1015.25 1015.74 1016.13 1016.48 1016.73 1016.95 1017.16 1017.40 1017.51 1017.35 1017.19 1017.36 1017.40 1017.66 1017.96 1017.91 1017.75 1017.89 1017.66 1017.82 1018.02 1018.40 1018.59 1018.84 1019.12 1019.39 1019.52 1019.60 1019.87 1020.03 1020.02 1020.02 1019.97 1020.16 1020.31 1020.48 1020.57 1020.42 1020.58 1020.85 1020.96 1020.94 1021.09
1015.09 1015.60 1015.89 1016.32 1016.54 1016.96 1017.39 1017.76 1017.65 1017.47 1017.46 1017.41 1017.38 1017.46 1017.76 1017.72 1017.59 1017.63 1017.73 1017.87 1018.10 1018.46 1018.69 1018.94 1019.14 1019.32 1019.38 1019.52 1019.98 1020.03 1020.08 1019.95 1020.00 1020.14 1020.20 1020.42 1020.48 1020.42 1020.58 1020.81 1021.00 1021.19 1021.19
1014.41 1014.98 1015.75 1016.07 1016.47 1016.76 1017.04 1017.20 1017.24 1017.20 1017.19 1017.18 1017.10 1017.26 1017.61 1017.50 1017.57 1017.58 1017.73 1017.94 1018.13 1018.53 1018.73 1018.82 1018.96 1019.31 1019.45 1019.67 1020.18 1020.56 1020.57 1020.18 1019.91 1020.10 1020.20 1020.30 1020.21 1020.16 1020.45 1020.67 1020.91 1021.14 1021.30
1014.30 1014.69 1015.21 1015.69 1016.14 1016.42 1016.74 1017.07 1017.09 1017.14 1017.14 1017.30 1017.32 1017.44 1017.45 1017.37 1017.58 1017.61 1017.66 1017.81 1018.02 1018.35 1018.62 1018.84 1018.99 1019.18 1019.59 1019.78 1019.86 1020.34 1020.92 1020.93 1020.49 1019.99 1020.00 1020.21 1020.27 1020.36 1020.24 1020.35 1020.65 1021.01 1021.28
1013.74 1014.28 1014.82 1015.42 1015.77 1016.05 1016.51 1016.81 1016.96 1017.06 1017.32 1017.24 1017.23 1017.19 1017.18 1017.16 1017.31 1017.55 1017.62 1017.81 1018.04 1018.24 1018.62 1018.79 1019.02 1019.16 1019.32 1019.85 1020.14 1020.15 1020.42 1020.72 1020.87 1020.73 1020.18 1020.23 1020.22 1020.21 1020.18 1020.22 1020.49 1020.81 1021.11
1013.51 1013.83 1014.45 1014.97 1015.41 1015.71 1016.16 1016.37 1016.74 1017.00 1016.96 1017.08 1017.12 1017.21 1017.29 1017.28 1017.32 1017.46 1017.48 1017.82 1018.06 1018.27 1018.57 1018.74 1018.89 1019.15 1019.39 1019.68 1019.94 1020.03 1020.30 1020.61 1020.59 1020.65 1020.60 1020.29 1020.17 1020.26 1020.32 1020.25 1020.43 1020.64 1020.88
1013.65 1013.81 1014.10 1014.62 1015.03 1015.41 1015.80 1016.16 1016.51 1016.75 1016.89 1017.08 1017.23 1017.36 1017.31 1017.43 1017.47 1017.33 1017.41 1017.71 1017.87 1018.09 1018.42 1018.57 1018.90 1019.17 1019.34 1019.43 1019.58 1019.82 1020.02 1020.16 1020.31 1020.50 1020.59 1020.56 1020.50 1020.25 1020.22 1020.22 1020.35 1020.51 1020.71
Wind_Speed
4 5 10 12 14 15 16 17 17 17 17 17 17 18 19 19 19 18 16 16 16 14 15 12 12 13 14 13 14 16 16 14 13 12 13 14 15 14 13 14 15 12 17
5 5 11 13 14 15 16 16 16 17 18 17 17 17 18 19 19 17 16 15 15 14 13 12 13 12 13 13 13 14 14 13 12 12 11 11 13 14 13 14 14 12 16
5 6 7 12 13 14 15 15 15 16 18 17 17 17 18 16 17 17 17 14 13 13 13 11 11 12 11 12 12 12 13 12 11 12 13 4 5 12 13 14 14 14 15
5 5 4 14 12 14 15 15 14 15 16 15 16 15 16 16 14 15 15 12 12 12 13 11 10 10 11 10 11 10 11 12 12 12 5 3 7 13 13 11 14 14 13
5 5 6 13 13 13 16 14 15 14 14 13 15 14 16 15 12 13 14 10 10 12 12 11 11 10 10 8 8 7 6 5 9 7 4 4 4 8 12 12 11 12 12
5 5 10 13 13 14 14 14 14 13 13 12 13 13 13 12 12 10 12 10 9 10 9 10 10 8 7 7 6 4 5 7 9 5 5 6 4 12 13 13 13 12 13
6 6 9 11 12 12 13 14 13 12 12 11 11 11 10 10 10 9 9 10 7 7 7 6 9 9 8 5 3 2 5 11 5 4 5 5 4 10 11 12 13 13 11
7 6 6 11 12 11 11 12 12 11 12 10 10 10 9 8 7 6 7 8 7 6 6 5 5 6 7 6 4 3 7 12 7 4 5 4 9 10 12 10 10 11 12
8 7 5 5 8 10 10 10 11 10 10 10 8 9 8 7 7 6 5 6 5 4 4 5 4 3 3 5 4 2 10 11 5 3 5 3 10 12 12 10 10 9 9
6 6 5 5 4 4 4 10 11 10 10 9 9 8 6 6 5 4 3 3 3 3 3 4 2 2 2 2 3 4 6 9 4 4 3 4 8 11 12 11 9 9 10
5 5 5 5 5 5 4 5 9 11 10 9 7 6 5 2 2 4 5 6 5 5 5 4 4 3 4 3 2 6 7 2 2 3 2 9 9 12 12 11 11 10 10
7 6 5 5 5 5 4 3 4 3 2 3 3 3 2 3 3 5 6 7 6 8 7 6 5 5 3 3 0 5 3 2 2 3 2 10 10 9 12 11 11 11 10
8 6 7 6 5 5 4 3 2 2 2 2 4 4 3 2 3 3 2 2 0 2 1 2 2 2 2 2 3 2 4 4 3 3 4 10 10 11 12 12 12 11 12
8 8 6 6 5 6 3 3 3 3 3 3 4 3 4 2 2 4 3 3 4 2 2 2 2 2 4 4 4 4 4 3 3 3 4 9 7 10 12 12 12 11 11
8 8 8 6 6 7 5 4 4 4 3 4 4 5 4 3 3 3 4 3 1 3 3 2 2 2 2 4 4 4 4 5 5 3 2 12 9 10 11 13 13 12 12
10 10 8 9 7 6 6 6 5 4 4 4 3 5 6 4 4 3 3 1 2 3 2 3 2 3 3 4 4 4 5 4 4 4 2 5 13 11 11 12 12 12 11
9 10 11 10 8 7 7 6 4 5 5 4 5 5 6 5 5 5 4 3 3 2 3 2 2 2 3 3 3 3 2 3 2 3 3 3 4 10 10 13 15 13 13
10 10 9 10 10 8 7 4 4 4 4 4 4 4 5 6 6 4 3 4 2 3 2 2 2 2 1 1 0 1 2 3 4 2 1 2 3 3 9 11 14 16 15
10 9 9 10 10 9 7 4 5 5 2 2 3 3 4 5 4 2 3 3 1 2 3 3 2 2 2 2 2 2 2 2 3 3 5 5 5 5 3 8 13 16 16
10 9 8 7 8 8 5 2 4 1 1 1 3 3 5 4 4 3 2 1 3 3 3 2 3 1 2 2 1 2 2 3 3 3 3 3 4 5 4 4 3 5 16
9 10 9 8 7 6 2 3 2 2 1 1 3 5 4 3 2 3 1 4 3 3 3 4 3 3 2 2 2 2 2 1 3 4 4 4 4 3 4 4 3 2 3
14 13 11 11 7 7 3 3 2 2 2 2 2 3 4 5 4 2 3 4 4 3 3 4 3 2 1 2 3 2 3 3 2 1 2 3 4 3 4 4 4 5 4
13 14 13 12 11 7 6 2 1 3 2 2 1 2 5 5 4 4 4 4 4 3 3 2 2 3 2 2 2 4 2 2 2 2 1 2 2 2 3 4 5 4 5
15 12 12 10 9 8 7 4 4 4 3 3 3 3 4 5 5 5 5 5 4 2 3 1 2 1 3 2 1 2 1 3 2 3 2 2 2 3 5 3 3 3 3
13 13 10 10 9 8 7 7 5 4 2 1 1 2 3 3 4 6 6 5 4 4 2 3 2 1 1 2 2 1 2 1 2 2 3 2 1 1 2 3 4 4 4
9 10 11 12 11 9 8 7 8 8 6 2 3 4 3 3 3 5 5 5 4 4 4 3 2 2 2 2 2 1 2 3 4 2 1 2 3 2 2 3 4 4 4
Wind_Direction
252 255 133 117 103 96 99 101 103 105 106 107 110 108 105 106 107 106 107 107 103 110 110 107 113 110 110 104 109 107 108 105 105 100 103 107 111 114 114 110 109 110 114
135 208 136 120 107 102 101 102 103 107 106 109 106 105 104 105 106 104 102 102 99 100 103 111 106 107 110 110 115 114 115 110 111 111 114 110 112 115 118 112 112 113 113
141 154 128 121 116 113 107 103 105 107 105 105 107 107 102 103 105 103 96 95 95 102 102 102 108 109 106 112 116 118 116 105 103 104 112 100 112 114 122 123 124 121 121
136 129 140 121 119 117 112 111 108 106 108 108 106 105 106 106 108 107 105 98 102 105 103 104 103 103 104 111 116 130 125 106 111 106 81 99 126 128 123 130 121 124 124
115 127 154 131 127 120 117 114 111 112 113 114 111 110 106 107 104 109 106 102 98 102 106 109 109 105 109 116 118 133 137 110 128 108 93 104 102 130 125 120 124 128 129
127 150 143 137 131 124 119 117 118 120 122 122 118 116 113 112 110 112 109 104 100 106 115 113 114 115 117 126 135 156 168 138 125 112 113 108 117 137 140 139 135 140 136
146 147 139 136 132 127 126 120 119 125 121 123 126 124 125 121 121 122 112 112 109 106 97 93 99 103 102 102 109 132 178 162 133 128 126 124 135 143 140 139 139 139 138
139 124 136 140 138 135 132 126 125 131 127 131 137 136 137 132 132 139 135 129 133 133 123 107 86 85 90 90 77 70 131 138 140 137 141 145 139 148 137 133 136 138 136
149 143 138 139 146 147 140 139 139 140 136 144 153 148 151 154 163 167 161 151 151 157 149 140 131 107 97 94 88 69 165 151 135 152 143 140 156 152 144 146 146 150 138
146 139 152 142 128 131 156 164 159 160 156 173 170 167 165 174 185 189 186 214 189 194 199 168 179 178 156 116 108 106 147 158 142 155 158 167 165 156 155 151 156 154 151
166 157 154 150 157 149 187 190 176 176 174 186 183 179 193 162 251 237 215 211 237 225 229 231 213 227 217 106 137 134 139 122 142 166 168 169 166 170 169 163 160 162 161
178 182 174 160 171 171 189 226 197 198 182 212 218 235 214 223 234 232 246 246 238 243 240 232 241 245 256 112 232 134 119 152 177 181 158 163 167 192 173 169 163 166 169
180 184 181 168 168 184 217 204 205 203 216 236 239 237 253 273 274 301 257 277 39 277 215 96 65 331 182 161 188 198 165 169 175 201 182 184 172 186 176 173 168 172 166
184 195 176 178 172 194 215 202 208 210 204 228 230 233 242 242 235 228 231 226 204 186 220 148 139 237 271 186 170 220 198 175 179 186 197 193 171 181 179 173 174 176 173
196 198 191 180 187 197 200 207 225 225 218 228 224 226 220 216 214 196 217 223 173 196 182 202 178 243 284 225 204 200 207 188 185 168 188 204 190 186 192 185 174 176 179
195 203 193 198 193 192 198 208 210 219 227 235 235 230 238 184 199 219 219 223 209 203 206 183 181 221 224 207 231 201 196 193 174 157 179 229 199 204 203 199 184 174 182
199 194 195 197 193 197 203 219 210 226 222 227 237 227 219 189 202 214 208 214 242 218 217 208 207 180 204 192 223 218 169 181 153 212 217 208 229 210 211 208 196 186 183
194 193 190 197 196 201 209 204 238 225 220 230 224 218 205 205 204 207 238 245 239 210 187 204 195 160 150 147 284 244 176 169 205 209 243 244 233 223 207 206 202 195 195
183 172 184 193 192 195 208 209 233 233 226 229 198 190 195 223 207 213 243 267 162 149 150 146 109 108 157 225 235 229 234 209 201 182 200 190 227 213 209 218 198 199 203
182 175 177 189 192 184 192 192 254 263 346 155 217 202 210 233 206 226 265 133 129 122 119 123 123 129 167 183 16 123 195 193 199 197 208 211 228 203 200 219 198 203 208
167 167 176 180 187 162 158 186 241 217 201 279 225 216 223 226 208 200 189 135 141 139 153 156 133 170 186 135 107 2 353 290 211 180 186 207 229 180 185 187 182 200 233
175 177 178 193 182 189 176 189 178 163 213 218 224 245 183 202 198 191 178 168 161 145 158 177 157 141 108 157 117 80 6 333 340 150 172 201 208 179 187 197 186 192 211
179 183 185 188 190 196 185 135 51 60 29 14 294 238 216 200 188 211 176 157 174 159 176 180 169 132 113 211 227 130 70 265 331 344 50 226 258 206 195 192 193 196 198
193 186 185 182 185 200 173 170 172 181 188 214 208 211 211 191 196 189 181 177 183 177 186 187 154 154 114 159 347 210 110 148 177 337 354 2 250 215 210 199 183 191 203
180 180 178 183 187 198 184 189 187 191 236 320 225 206 211 197 205 198 173 175 185 184 181 180 175 157 135 143 172 183 180 180 153 145 249 299 2 299 247 188 183 185 179
194 183 176 179 194 196 187 199 194 195 216 211 246 233 226 204 199 207 178 184 186 185 190 200 189 179 185 171 162 160 195 182 202 167 169 241 233 259 182 199 190 184 159